Location: *
(44.3925°N, 5.4708°E)
Time: 14:35:52
(UTC+00:00)

Cosmos 2151 Rocket - Pass Details

Date: 18 September 2019
Orbit: 618 x 642 km, 82.5° (Epoch: 18 October)

Event Time Altitude Azimuth Distance (km) Brightness Sun altitude
Rises 18:12:23 0° 183° (S) 2,890 6.9 -5.9°
Reaches altitude 10° 18:14:37 10° 182° (S) 1,986 6.1 -6.3°
Maximum altitude 18:19:00 78° 97° (E) 639 3.5 -7.1°
Drops below altitude 10° 18:23:25 10° 11° (N) 1,994 6.2 -7.8°
Sets 18:25:39 0° 10° (N) 2,904 7.0 -8.2°
